TimeCST,TemperatureF,Dew PointF,Humidity,Sea Level PressureIn,VisibilityMPH,Wind Direction,Wind SpeedMPH,Gust SpeedMPH,PrecipitationIn,Events,Conditions,WindDirDegrees,DateUTC
12:14 AM,42.8,35.6,76,30.13,10.0,Calm,Calm,-,N/A,,Overcast,0,2012-11-15 06:14:00
12:34 AM,42.8,35.6,76,30.13,10.0,South,6.9,-,N/A,,Overcast,180,2012-11-15 06:34:00
12:54 AM,42.8,35.6,76,30.12,10.0,South,6.9,-,N/A,,Overcast,180,2012-11-15 06:54:00
1:14 AM,42.8,35.6,76,30.12,10.0,South,6.9,-,N/A,,Overcast,170,2012-11-15 07:14:00
1:34 AM,42.8,35.6,76,30.12,10.0,South,6.9,-,N/A,,Overcast,170,2012-11-15 07:34:00
1:54 AM,42.8,35.6,76,30.12,10.0,South,8.1,-,N/A,,Overcast,170,2012-11-15 07:54:00
2:14 AM,42.8,35.6,76,30.12,10.0,South,6.9,-,N/A,,Overcast,170,2012-11-15 08:14:00
2:34 AM,42.8,33.8,70,30.13,10.0,SSE,5.8,-,N/A,,Overcast,160,2012-11-15 08:34:00
2:53 AM,42.8,33.8,70,30.12,10.0,SSE,8.1,-,N/A,,Overcast,160,2012-11-15 08:53:00
3:14 AM,42.8,33.8,70,30.11,10.0,SSE,3.5,-,N/A,,Overcast,150,2012-11-15 09:14:00
3:34 AM,42.8,33.8,70,30.11,10.0,SSE,4.6,-,N/A,,Overcast,160,2012-11-15 09:34:00
3:54 AM,42.8,33.8,70,30.11,10.0,SSE,3.5,-,N/A,,Mostly Cloudy,150,2012-11-15 09:54:00
4:14 AM,42.8,33.8,70,30.11,10.0,SSE,4.6,-,N/A,,Overcast,150,2012-11-15 10:14:00
4:34 AM,39.2,32.0,75,30.11,10.0,SSE,4.6,-,N/A,,Mostly Cloudy,160,2012-11-15 10:34:00
4:54 AM,41.0,33.8,76,30.11,10.0,SSE,5.8,-,N/A,,Scattered Clouds,150,2012-11-15 10:54:00
5:14 AM,42.8,33.8,70,30.12,10.0,SSE,4.6,-,N/A,,Mostly Cloudy,150,2012-11-15 11:14:00
5:34 AM,41.0,33.8,76,30.12,10.0,South,3.5,-,N/A,,Mostly Cloudy,170,2012-11-15 11:34:00
5:54 AM,39.2,32.0,75,30.12,10.0,SSE,3.5,-,N/A,,Mostly Cloudy,160,2012-11-15 11:54:00
6:13 AM,39.2,32.0,75,30.13,10.0,Calm,Calm,-,N/A,,Overcast,0,2012-11-15 12:13:00
6:34 AM,39.2,33.8,81,30.13,10.0,Calm,Calm,-,N/A,,Mostly Cloudy,0,2012-11-15 12:34:00
6:50 AM,39.2,32.0,75,30.14,10.0,Calm,Calm,-,N/A,,Mostly Cloudy,0,2012-11-15 12:50:00
6:54 AM,39.2,32.0,75,30.14,10.0,Calm,Calm,-,N/A,,Mostly Cloudy,0,2012-11-15 12:54:00
7:45 AM,37.4,33.8,87,30.16,10.0,South,3.5,-,N/A,,Mostly Cloudy,170,2012-11-15 13:45:00
8:45 AM,42.8,33.8,70,30.18,10.0,West,5.8,-,N/A,,Partly Cloudy,260,2012-11-15 14:45:00
9:45 AM,46.4,33.8,62,30.20,10.0,West,5.8,-,N/A,,Clear,270,2012-11-15 15:45:00
10:45 AM,48.2,33.8,58,30.22,10.0,NW,8.1,-,N/A,,Clear,320,2012-11-15 16:45:00
11:45 AM,50.0,35.6,58,30.22,10.0,WNW,4.6,-,N/A,,Clear,290,2012-11-15 17:45:00
12:45 PM,51.8,33.8,50,30.23,10.0,WNW,10.4,-,N/A,,Clear,300,2012-11-15 18:45:00
2:50 PM,51.8,30.2,44,30.36,10.0,NW,11.5,-,N/A,,Clear,320,2012-11-15 20:50:00
5:45 PM,39.2,19.4,45,30.36,10.0,NNW,11.5,-,N/A,,Clear,340,2012-11-15 23:45:00
6:45 PM,37.4,17.6,45,30.38,10.0,NNW,9.2,-,N/A,,Clear,330,2012-11-16 00:45:00
7:45 PM,33.8,15.8,48,30.40,10.0,NNW,5.8,-,N/A,,Clear,330,2012-11-16 01:45:00
8:45 PM,32.0,15.8,51,30.42,10.0,NNW,4.6,-,N/A,,Clear,340,2012-11-16 02:45:00
9:14 PM,32.0,15.8,51,30.42,10.0,NNW,5.8,-,N/A,,Clear,340,2012-11-16 03:14:00
9:34 PM,30.2,14.0,51,30.43,10.0,North,5.8,-,N/A,,Clear,350,2012-11-16 03:34:00
9:54 PM,28.4,14.0,55,30.44,10.0,North,6.9,-,N/A,,Clear,350,2012-11-16 03:54:00
10:14 PM,28.4,14.0,55,30.44,10.0,North,5.8,-,N/A,,Clear,360,2012-11-16 04:14:00
10:34 PM,26.6,14.0,59,30.44,10.0,North,5.8,-,N/A,,Clear,350,2012-11-16 04:34:00
10:53 PM,28.4,14.0,55,30.45,10.0,North,4.6,-,N/A,,Clear,350,2012-11-16 04:53:00
11:14 PM,28.4,12.2,51,-9999,10.0,NNW,5.8,-,N/A,,Clear,340,2012-11-16 05:14:00
11:34 PM,28.4,12.2,51,30.45,10.0,North,4.6,-,N/A,,Clear,350,2012-11-16 05:34:00
11:54 PM,26.6,14.0,59,30.46,10.0,NNW,4.6,-,N/A,,Clear,340,2012-11-16 05:54:00